Regional Weather Roundup
Issued by NWS Upton, NY

Current Version | Previous Version | Graphics & Text | Print | Product List | Glossary Off
Versions: 1 2 3 4 5 6 7 8 9 10 11 12 13 14 15 16 17 18 19 20 21 22 23 24 25 26 27 28 29 30 31 32 33 34 35 36 37 38 39 40 41 42 43 44 45 46 47 48 49 50

000
ASUS41 KOKX 310405
RWROKX

REGIONAL WEATHER ROUNDUP
NATIONAL WEATHER SERVICE NEW YORK NY
1200 AM EDT THU JUL 31 2014

NOTE: "FAIR" INDICATES FEW OR NO CLOUDS BELOW 12,000 FEET WITH NO
SIGNIFICANT WEATHER AND/OR OBSTRUCTIONS TO VISIBILITY.

NYZ071-072-176-178-NJZ106-104-310500-
NEW YORK CITY METRO AREA


CITY           SKY/WX    TMP DP  RH WIND       PRES   REMARKS
CENTRAL PARK   CLEAR     72  57  59 CALM      30.07S
LAGUARDIA APRT PTCLDY    73  58  59 S7        30.04S
KENNEDY INTL   PTCLDY    71  63  75 S12       30.06R
NEWARK/LIBERTY PTCLDY    70  59  68 SW3       30.04S
BRNX BOT. GARD   N/A     72  55  56 W5        30.07R
TETERBORO      CLEAR     71  58  63 S3        30.03S
$$

NYZ177-179-078>081-310500-
LONG ISLAND NEW YORK

CITY           SKY/WX    TMP DP  RH WIND       PRES   REMARKS
FARMINGDALE    CLEAR     69  61  75 SW5       30.05S
ISLIP          CLEAR     71  60  68 SW6       30.04S
SHIRLEY        CLEAR     68  61  78 S5        30.07S
WESTHAMPTON    CLEAR     57  53  86 CALM      30.08S
MONTAUK POINT    N/A     68  60  75 VRB3      30.08S
$$

NYZ052-065-067-310500-
HUDSON VALLEY

CITY           SKY/WX    TMP DP  RH WIND       PRES   REMARKS
WHITE PLAINS   CLEAR     63  59  87 CALM      30.05S
NEWBURGH       CLEAR     64  57  77 CALM      30.06R
MONTGOMERY     CLEAR     59  56  89 CALM      30.04S
POUGHKEEPSIE   CLEAR     61  57  87 CALM      30.03S
ALBANY         MOCLDY    67  57  70 SW8       30.03R
$$

NJZ001-105-106-008-010-013-015-019>022-104-310500-
NEW JERSEY

CITY           SKY/WX    TMP DP  RH WIND       PRES   REMARKS
NEWARK/LIBERTY PTCLDY    70  59  68 SW3       30.04S
TETERBORO      CLEAR     71  58  63 S3        30.03S
CALDWELL       CLEAR     63  55  75 CALM      30.05S
MORRISTOWN     CLEAR     59  55  88 CALM      30.05S
SOMERVILLE     CLEAR     60  57  89 CALM      30.04S
LINDEN         FAIR      70  58  65 CALM      30.07R
SUSSEX         CLEAR     60  56  86 CALM      30.05S
ANDOVER          N/A     58  56  93 CALM      30.06S
TRENTON        CLEAR     65  55  70 CALM      30.05S
MILLVILLE      CLEAR     59  57  93 CALM      30.07S
ATLANTIC CITY  CLEAR     64  56  75 SW5       30.07S
WRIGHTSTOWN    CLEAR     63  56  78 SW7       30.04S
TOMS RIVER     CLEAR     61  54  77 CALM      30.07S
BELMAR         CLEAR     66  55  68 W3        30.06R
$$

PAZ047>061-062-071-310500-
EASTERN PENNSYLVANIA

CITY           SKY/WX    TMP DP  RH WIND       PRES   REMARKS
PHILADELPHIA   PTCLDY    70  56  61 SW7       30.06S
ALLENTOWN      PTCLDY    63  56  78 CALM      30.06R
SCRANTON       CLOUDY    63  57  81 SW3       30.06S
$$

CTZ002-004>006-009-010-012-RIZ004-006-007-MAZ004-011-015-310500-
SOUTHERN NEW ENGLAND
 IN CT

CITY           SKY/WX    TMP DP  RH WIND       PRES   REMARKS
BRADLEY INTL   CLEAR     62  55  77 CALM      30.05R
HARTFORD       CLEAR     65  55  70 S3        30.05R
DANBURY        CLEAR     60  55  83 SW3       30.07R
WTRBRY/OXFORD  CLEAR     59  52  77 CALM      30.08S
BRIDGEPORT     CLEAR     71  62  73 S6        30.05S
MERIDEN        CLEAR     59  55  87 CALM      30.06R
NEW HAVEN      CLEAR     72  60  66 SW5       30.06R
CHESTER        FAIR      64  61  88 SW3       30.08R
GROTON         CLEAR     62  59  90 CALM      30.06S
WILLIMANTIC    CLEAR     59  56  89 NE3       30.07R

 IN RI

CITY           SKY/WX    TMP DP  RH WIND       PRES   REMARKS
PROVIDENCE     CLEAR     65  57  75 W5        30.06S
BLOCK ISLAND   CLEAR     66  57  72 SW8       30.07S
WESTERLY       CLEAR     63  59  87 CALM      30.07S

 IN MA

CITY           SKY/WX    TMP DP  RH WIND       PRES   REMARKS
BOSTON         PTCLDY    68  55  63 SW9       30.04S
WORCESTER      CLEAR     59  54  83 SW7       30.08R
WESTFIELD      CLEAR     59  56  89 CALM      30.05R
PROVINCETOWN   CLEAR     64  57  77 SW8       30.06S
NANTUCKET      CLEAR     64  62  93 SW5       30.07S
$$

ANZ330-335-338-340-345-350-353-355-310500-
COASTAL MARINE OBSERVATIONS


STATION/POSITION TIME  SKY/WX   TEMP    WIND        PRES    VSBY  WAVE
                                AIR SEA DIR/SP/G                  HT/PER
                 (UTC)          (F)     (DEG/KT/KT) (MB)    (MI)  (FT/S)
NY HARB ENTRANCE NOT AVBL
4S FIRE IS       NOT AVBL
23SW MTP         0400            70 70              1017.7          3/ 8
HUDSON CANYON    0400            72 75  240/  6/  8 1018.3          3/ 8
EXECUTION ROCKS  0400            71 69  180/  8/ 10   N/A
WESTERN LI SOUND 0400            71     200/  8/ 10   N/A           0
CENTRAL LI SOUND 0300            71 73  210/ 12/ 16   N/A           1/ 3
EASTERN LI SOUND 0300            69 68  200/  6/  8   N/A
ROBBINS REEF     0400            73     230/  9/ 11   N/A
$$


>>>>>>>>>>>>>>>>>>>>>>>>>>>> KEY <<<<<<<<<<<<<<<<<<<<<<<<<<<
>                                                          <
>     SKY/WX - SKY CONDITION/PRESENT WEATHER               <
>     TMP    - TEMPERATURE IN FAHRENHEIT                   <
>     DP     - DEWPOINT IN FAHRENHEIT                      <
>     RH     - RELATIVE HUMIDITY IN PERCENT                <
>     WIND   - DIRECTION AND SPEED IN MPH                  <
>     PRES   - MEAN SEA LEVEL PRESSURE IN INCHES OF HG     <
>     WCI    - WIND CHILL INDEX                            <
>     VSB    - VISIBILITY IN MILES                         <
>     HX     - HEAT INDEX                                  <
>     TC     - TEMPERATURE IN CELSIUS                      <
>     VRB    - VARIABLE WIND DIRECTION                     <
>                                                          <
>>>>>>>>>>>>>>>>>>>>>>>>>>>> KEY <<<<<<<<<<<<<<<<<<<<<<<<<<<




USA.gov is the U.S. government's official web portal to all federal, state and local government web resources and services.